Location: Bannatyne
(13.0833°N, 59.5333°W)
Time: 11:22:32
(UTC+00:00)

Transit 2A - Pass Details

Date: 28 January 2020
Orbit: 599 x 959 km, 66.7° (Epoch: 25 February)

Event Time Altitude Azimuth Distance (km) Brightness Sun altitude
Rises 10:00:46 0° 318° (NW) 3,227 - -6.4°
Exits shadow 10:01:50 - 314° (NW) 2,866 8.4 -6.2°
Reaches altitude 10° 10:03:25 10° 306° (NW) 2,362 7.9 -5.8°
Maximum altitude 10:07:54 26° 251° (WSW) 1,601 7.3 -4.8°
Drops below altitude 10° 10:12:42 10° 196° (SSW) 2,552 8.8 -3.7°
Sets 10:15:42 0° 184° (S) 3,540 9.6 -3.0°
